Time,TemperatureF,DewpointF,PressureIn,WindDirection,WindDirectionDegrees,WindSpeedMPH,WindSpeedGustMPH,Humidity,HourlyPrecipIn,Conditions,Clouds,dailyrainin,SoftwareType,DateUTC
2013-03-11 00:00:00,54.5,35.1,0.00,West,270,10.9,10.9,48,0.00,,,0.00,WUHU216HW,2013-03-11 04:00:00,
2013-03-11 00:05:00,54.5,35.1,0.00,SSW,203,0.0,10.9,48,0.00,,,0.00,WUHU216HW,2013-03-11 04:05:00,
2013-03-11 00:10:00,54.5,35.1,0.00,West,270,4.9,6.4,48,0.00,,,0.00,WUHU216HW,2013-03-11 04:10:00,
2013-03-11 00:15:00,54.6,35.2,0.00,West,270,1.5,7.1,48,0.00,,,0.00,WUHU216HW,2013-03-11 04:15:00,
2013-03-11 00:20:00,54.5,35.2,0.00,West,270,6.4,7.1,48,0.00,,,0.00,WUHU216HW,2013-03-11 04:20:00,
2013-03-11 00:25:00,54.5,35.1,0.00,WSW,248,2.9,6.7,48,0.00,,,0.00,WUHU216HW,2013-03-11 04:25:00,
2013-03-11 00:30:00,54.5,35.1,0.00,West,270,2.4,6.7,48,0.00,,,0.00,WUHU216HW,2013-03-11 04:30:00,
2013-03-11 00:35:00,54.5,35.1,0.00,West,270,1.5,5.3,48,0.00,,,0.00,WUHU216HW,2013-03-11 04:35:00,
2013-03-11 00:40:00,54.5,35.1,0.00,West,270,2.4,3.8,48,0.00,,,0.00,WUHU216HW,2013-03-11 04:40:00,
2013-03-11 00:45:00,54.3,34.9,0.00,West,270,6.2,6.7,48,0.00,,,0.00,WUHU216HW,2013-03-11 04:45:00,
2013-03-11 00:50:00,54.3,35.5,0.00,West,270,5.8,6.9,49,0.00,,,0.00,WUHU216HW,2013-03-11 04:50:00,
2013-03-11 00:55:00,54.5,35.6,0.00,WSW,248,4.2,6.9,49,0.00,,,0.00,WUHU216HW,2013-03-11 04:55:00,
2013-03-11 01:00:00,54.5,35.6,0.00,WNW,293,7.1,9.1,49,0.00,,,0.00,WUHU216HW,2013-03-11 05:00:00,
2013-03-11 01:05:00,54.5,36.2,0.00,WSW,248,3.3,9.1,50,0.00,,,0.00,WUHU216HW,2013-03-11 05:05:00,
2013-03-11 01:10:00,54.3,36.0,0.00,West,270,4.4,6.4,50,0.00,,,0.00,WUHU216HW,2013-03-11 05:10:00,
2013-03-11 01:15:00,54.3,36.0,0.00,WSW,248,1.5,6.9,50,0.00,,,0.00,WUHU216HW,2013-03-11 05:15:00,
2013-03-11 01:20:00,54.1,35.9,0.00,WNW,293,6.9,10.7,50,0.00,,,0.00,WUHU216HW,2013-03-11 05:20:00,
2013-03-11 01:25:00,54.1,36.3,0.00,WNW,293,3.1,10.7,51,0.00,,,0.00,WUHU216HW,2013-03-11 05:25:00,
2013-03-11 01:30:00,54.1,36.3,0.00,WNW,293,2.6,7.3,51,0.00,,,0.00,WUHU216HW,2013-03-11 05:30:00,
2013-03-11 01:35:00,53.9,36.2,0.00,WNW,293,3.1,7.3,51,0.00,,,0.00,WUHU216HW,2013-03-11 05:35:00,
2013-03-11 01:40:00,53.7,36.5,0.00,West,270,6.4,6.4,52,0.00,,,0.00,WUHU216HW,2013-03-11 05:40:00,
2013-03-11 01:45:00,53.7,36.5,0.00,SE,135,1.5,6.4,52,0.00,,,0.00,WUHU216HW,2013-03-11 05:45:00,
2013-03-11 01:50:00,53.7,36.5,0.00,West,270,5.5,5.5,52,0.00,,,0.00,WUHU216HW,2013-03-11 05:50:00,
2013-03-11 01:55:00,53.7,36.9,0.00,West,270,1.1,5.5,53,0.00,,,0.00,WUHU216HW,2013-03-11 05:55:00,
2013-03-11 02:00:00,53.6,36.8,0.00,WSW,248,2.4,7.1,53,0.00,,,0.00,WUHU216HW,2013-03-11 06:00:00,
2013-03-11 02:05:00,53.4,37.1,0.00,WSW,248,0.0,7.1,54,0.00,,,0.00,WUHU216HW,2013-03-11 06:05:00,
2013-03-11 02:10:00,53.4,37.1,0.00,West,270,0.0,6.9,54,0.00,,,0.00,WUHU216HW,2013-03-11 06:10:00,
2013-03-11 02:15:00,53.4,37.1,0.00,WNW,293,0.0,3.8,54,0.00,,,0.00,WUHU216HW,2013-03-11 06:15:00,
2013-03-11 02:20:00,53.4,37.5,0.00,WNW,293,4.0,4.0,55,0.00,,,0.00,WUHU216HW,2013-03-11 06:20:00,
2013-03-11 02:25:00,53.4,38.0,0.00,SW,225,6.4,9.6,56,0.00,,,0.00,WUHU216HW,2013-03-11 06:25:00,
2013-03-11 02:30:00,53.4,38.9,0.00,West,270,0.0,9.6,58,0.00,,,0.00,WUHU216HW,2013-03-11 06:30:00,
2013-03-11 02:35:00,53.4,38.9,0.00,West,270,0.0,8.0,58,0.00,,,0.00,WUHU216HW,2013-03-11 06:35:00,
2013-03-11 02:40:00,53.4,39.4,0.00,West,270,0.0,8.0,59,0.00,,,0.00,WUHU216HW,2013-03-11 06:40:00,
2013-03-11 02:45:00,53.2,39.7,0.00,SSE,158,1.7,7.8,60,0.00,,,0.00,WUHU216HW,2013-03-11 06:45:00,
2013-03-11 02:50:00,53.2,40.1,0.00,West,270,0.0,7.8,61,0.00,,,0.00,WUHU216HW,2013-03-11 06:50:00,
2013-03-11 02:55:00,53.2,40.1,0.00,West,270,0.0,6.4,61,0.00,,,0.00,WUHU216HW,2013-03-11 06:55:00,
2013-03-11 03:00:00,53.2,40.9,0.00,West,270,2.9,7.1,63,0.00,,,0.00,WUHU216HW,2013-03-11 07:00:00,
2013-03-11 03:05:00,53.2,41.3,0.00,WSW,248,0.0,7.1,64,0.00,,,0.00,WUHU216HW,2013-03-11 07:05:00,
2013-03-11 03:10:00,53.2,41.3,0.00,WNW,293,4.9,5.5,64,0.00,,,0.00,WUHU216HW,2013-03-11 07:10:00,
2013-03-11 03:15:00,53.2,42.1,0.00,West,270,0.0,9.3,66,0.00,,,0.00,WUHU216HW,2013-03-11 07:15:00,
2013-03-11 03:20:00,53.2,42.5,0.00,West,270,6.4,9.3,67,0.00,,,0.00,WUHU216HW,2013-03-11 07:20:00,
2013-03-11 03:25:00,53.2,42.5,0.00,WSW,248,2.0,8.2,67,0.00,,,0.00,WUHU216HW,2013-03-11 07:25:00,
2013-03-11 03:30:00,53.2,42.3,0.00,WSW,248,0.0,8.2,67,0.00,,,0.00,WUHU216HW,2013-03-11 07:30:00,
2013-03-11 03:35:00,52.8,42.6,0.00,West,270,4.4,5.3,68,0.00,,,0.00,WUHU216HW,2013-03-11 07:35:00,
2013-03-11 03:40:00,52.8,42.6,0.00,West,270,4.6,5.3,68,0.00,,,0.00,WUHU216HW,2013-03-11 07:40:00,
2013-03-11 03:45:00,52.8,42.6,0.00,WSW,248,0.0,5.3,68,0.00,,,0.00,WUHU216HW,2013-03-11 07:45:00,
2013-03-11 03:50:00,52.8,42.6,0.00,SW,225,1.1,3.1,68,0.00,,,0.00,WUHU216HW,2013-03-11 07:50:00,
2013-03-11 03:55:00,52.8,42.9,0.00,WNW,293,0.0,2.2,69,0.00,,,0.00,WUHU216HW,2013-03-11 07:55:00,
2013-03-11 04:00:00,52.7,43.2,0.00,West,270,0.8,4.4,70,0.00,,,0.00,WUHU216HW,2013-03-11 08:00:00,
2013-03-11 04:05:00,52.7,42.8,0.00,SE,135,0.0,4.4,69,0.00,,,0.00,WUHU216HW,2013-03-11 08:05:00,
2013-03-11 04:10:00,52.5,43.0,0.00,WNW,293,3.3,5.5,70,0.00,,,0.00,WUHU216HW,2013-03-11 08:10:00,
2013-03-11 04:15:00,52.5,43.7,0.00,WSW,248,4.4,8.0,72,0.00,,,0.00,WUHU216HW,2013-03-11 08:15:00,
2013-03-11 04:20:00,52.3,43.7,0.00,West,270,2.4,9.3,72,0.00,,,0.00,WUHU216HW,2013-03-11 08:20:00,
2013-03-11 04:25:00,52.3,43.6,0.00,West,270,1.3,9.3,72,0.00,,,0.00,WUHU216HW,2013-03-11 08:25:00,
2013-03-11 04:30:00,52.3,43.6,0.00,West,270,2.6,8.2,72,0.00,,,0.00,WUHU216HW,2013-03-11 08:30:00,
2013-03-11 04:35:00,52.1,43.7,0.00,West,270,3.3,9.1,73,0.00,,,0.00,WUHU216HW,2013-03-11 08:35:00,
2013-03-11 04:40:00,52.1,43.7,0.00,SW,225,0.0,9.1,73,0.00,,,0.00,WUHU216HW,2013-03-11 08:40:00,
2013-03-11 04:45:00,52.1,43.7,0.00,West,270,0.0,8.0,73,0.00,,,0.00,WUHU216HW,2013-03-11 08:45:00,
2013-03-11 04:50:00,51.9,43.9,0.00,West,270,0.0,8.0,74,0.00,,,0.00,WUHU216HW,2013-03-11 08:50:00,
2013-03-11 04:55:00,51.9,43.9,0.00,West,270,6.7,10.2,74,0.00,,,0.00,WUHU216HW,2013-03-11 08:55:00,
2013-03-11 05:00:00,51.8,43.8,0.00,West,270,1.7,10.2,74,0.00,,,0.00,WUHU216HW,2013-03-11 09:00:00,
2013-03-11 05:05:00,51.8,44.1,0.00,WNW,293,5.8,6.9,75,0.00,,,0.00,WUHU216HW,2013-03-11 09:05:00,
2013-03-11 05:10:00,51.8,44.1,0.00,West,270,0.0,8.2,75,0.00,,,0.00,WUHU216HW,2013-03-11 09:10:00,
2013-03-11 05:15:00,51.8,44.4,0.00,West,270,3.5,8.2,76,0.00,,,0.00,WUHU216HW,2013-03-11 09:15:00,
2013-03-11 05:20:00,51.6,44.3,0.00,West,270,0.0,8.2,76,0.00,,,0.00,WUHU216HW,2013-03-11 09:20:00,
2013-03-11 05:25:00,51.6,44.3,0.00,West,270,0.0,3.1,76,0.00,,,0.00,WUHU216HW,2013-03-11 09:25:00,
2013-03-11 05:30:00,51.6,44.6,0.00,West,270,4.9,12.5,77,0.00,,,0.00,WUHU216HW,2013-03-11 09:30:00,
2013-03-11 05:35:00,51.6,44.6,0.00,WSW,248,0.0,12.5,77,0.00,,,0.00,WUHU216HW,2013-03-11 09:35:00,
2013-03-11 05:40:00,51.6,44.6,0.00,West,270,2.6,3.1,77,0.00,,,0.00,WUHU216HW,2013-03-11 09:40:00,
2013-03-11 05:45:00,51.6,44.6,0.00,West,270,5.5,5.5,77,0.00,,,0.00,WUHU216HW,2013-03-11 09:45:00,
2013-03-11 05:50:00,51.6,44.6,0.00,WNW,293,7.1,12.0,77,0.00,,,0.00,WUHU216HW,2013-03-11 09:50:00,
2013-03-11 05:55:00,51.8,44.8,0.00,West,270,8.5,12.0,77,0.00,,,0.00,WUHU216HW,2013-03-11 09:55:00,
2013-03-11 06:00:00,51.6,44.9,0.00,West,270,6.9,8.5,78,0.00,,,0.00,WUHU216HW,2013-03-11 10:00:00,
2013-03-11 06:05:00,51.6,44.9,0.00,WNW,293,0.0,8.2,78,0.00,,,0.00,WUHU216HW,2013-03-11 10:05:00,
2013-03-11 06:10:00,51.6,44.9,0.00,West,270,0.0,8.2,78,0.00,,,0.00,WUHU216HW,2013-03-11 10:10:00,
2013-03-11 06:15:00,51.6,44.9,0.00,WSW,248,4.4,9.8,78,0.00,,,0.00,WUHU216HW,2013-03-11 10:15:00,
2013-03-11 06:20:00,51.6,44.9,0.00,West,270,4.2,9.8,78,0.00,,,0.00,WUHU216HW,2013-03-11 10:20:00,
2013-03-11 06:25:00,51.6,44.9,0.00,West,270,3.1,8.0,78,0.00,,,0.00,WUHU216HW,2013-03-11 10:25:00,
2013-03-11 06:30:00,51.6,44.9,0.00,West,270,7.6,7.6,78,0.00,,,0.00,WUHU216HW,2013-03-11 10:30:00,
2013-03-11 06:35:00,51.4,45.1,0.00,WSW,248,1.3,7.6,79,0.00,,,0.00,WUHU216HW,2013-03-11 10:35:00,
2013-03-11 06:40:00,51.4,45.1,0.00,West,270,0.0,6.7,79,0.00,,,0.00,WUHU216HW,2013-03-11 10:40:00,
2013-03-11 06:45:00,51.4,45.1,0.00,West,270,1.7,5.1,79,0.00,,,0.00,WUHU216HW,2013-03-11 10:45:00,
2013-03-11 06:50:00,51.4,45.1,0.00,SW,225,0.0,7.8,79,0.00,,,0.00,WUHU216HW,2013-03-11 10:50:00,
2013-03-11 06:55:00,51.0,44.7,0.00,West,270,6.2,7.8,79,0.00,,,0.00,WUHU216HW,2013-03-11 10:55:00,
2013-03-11 07:00:00,51.0,44.7,0.00,West,270,4.9,7.3,79,0.00,,,0.00,WUHU216HW,2013-03-11 11:00:00,
2013-03-11 07:05:00,50.9,44.9,0.00,WNW,293,5.1,7.3,80,0.00,,,0.00,WUHU216HW,2013-03-11 11:05:00,
2013-03-11 07:10:00,50.7,44.7,0.00,West,270,0.6,6.4,80,0.00,,,0.00,WUHU216HW,2013-03-11 11:10:00,
2013-03-11 07:15:00,50.7,44.7,0.00,West,270,0.0,5.8,80,0.00,,,0.00,WUHU216HW,2013-03-11 11:15:00,
2013-03-11 07:20:00,50.7,44.7,0.00,West,270,3.3,5.8,80,0.00,,,0.00,WUHU216HW,2013-03-11 11:20:00,
2013-03-11 07:25:00,50.7,44.7,0.00,West,270,7.6,7.6,80,0.00,,,0.00,WUHU216HW,2013-03-11 11:25:00,
2013-03-11 07:30:00,50.7,44.7,0.00,West,270,3.3,8.0,80,0.00,,,0.00,WUHU216HW,2013-03-11 11:30:00,
2013-03-11 07:35:00,50.7,44.7,0.00,West,270,3.8,8.0,80,0.00,,,0.00,WUHU216HW,2013-03-11 11:35:00,
2013-03-11 07:40:00,50.7,45.0,0.00,West,270,2.2,6.0,81,0.00,,,0.00,WUHU216HW,2013-03-11 11:40:00,
2013-03-11 07:45:00,50.5,44.6,0.00,WNW,293,1.3,6.0,80,0.00,,,0.00,WUHU216HW,2013-03-11 11:45:00,
2013-03-11 07:50:00,50.5,44.6,0.00,WSW,248,4.0,4.9,81,0.00,,,0.00,WUHU216HW,2013-03-11 11:50:00,
2013-03-11 07:55:00,50.5,44.9,0.00,West,270,0.0,4.2,81,0.00,,,0.00,WUHU216HW,2013-03-11 11:55:00,
2013-03-11 08:00:00,50.3,44.7,0.00,WSW,248,2.6,5.5,81,0.00,,,0.00,WUHU216HW,2013-03-11 12:00:00,
2013-03-11 08:05:00,50.3,44.7,0.00,West,270,0.0,9.3,81,0.00,,,0.00,WUHU216HW,2013-03-11 12:05:00,
2013-03-11 08:10:00,50.3,44.7,0.00,North,0,0.0,9.3,81,0.00,,,0.00,WUHU216HW,2013-03-11 12:10:00,
2013-03-11 08:15:00,50.3,45.0,0.00,WSW,248,2.9,4.4,82,0.00,,,0.00,WUHU216HW,2013-03-11 12:15:00,
2013-03-11 08:20:00,50.3,45.0,0.00,West,270,3.5,4.4,82,0.00,,,0.00,WUHU216HW,2013-03-11 12:20:00,
2013-03-11 08:25:00,50.3,45.0,0.00,West,270,0.0,4.4,82,0.00,,,0.00,WUHU216HW,2013-03-11 12:25:00,
2013-03-11 08:30:00,50.1,44.7,0.00,WSW,248,3.5,4.4,81,0.00,,,0.00,WUHU216HW,2013-03-11 12:30:00,
2013-03-11 08:35:00,50.3,44.7,0.00,WNW,293,0.0,3.5,81,0.00,,,0.00,WUHU216HW,2013-03-11 12:35:00,
2013-03-11 08:40:00,50.1,44.8,0.00,West,270,0.0,2.0,82,0.00,,,0.00,WUHU216HW,2013-03-11 12:40:00,
2013-03-11 08:45:00,50.1,44.8,0.00,West,270,0.0,3.3,82,0.00,,,0.00,WUHU216HW,2013-03-11 12:45:00,
2013-03-11 08:50:00,50.1,44.8,0.00,WNW,293,0.0,6.9,82,0.00,,,0.00,WUHU216HW,2013-03-11 12:50:00,
2013-03-11 08:55:00,49.8,44.4,0.00,WSW,248,0.0,6.9,82,0.00,,,0.00,WUHU216HW,2013-03-11 12:55:00,
2013-03-11 09:00:00,49.8,44.7,0.00,West,270,0.0,1.1,83,0.00,,,0.00,WUHU216HW,2013-03-11 13:00:00,
2013-03-11 09:05:00,49.8,44.7,0.00,West,270,0.6,2.2,83,0.00,,,0.00,WUHU216HW,2013-03-11 13:05:00,
2013-03-11 09:10:00,49.8,44.7,0.00,WSW,248,0.0,2.2,83,0.00,,,0.00,WUHU216HW,2013-03-11 13:10:00,
2013-03-11 09:15:00,49.6,44.9,0.00,WNW,293,0.0,2.2,84,0.00,,,0.00,WUHU216HW,2013-03-11 13:15:00,
2013-03-11 09:20:00,49.6,44.9,0.00,West,270,0.0,2.0,84,0.00,,,0.00,WUHU216HW,2013-03-11 13:20:00,
2013-03-11 09:25:00,49.6,44.9,0.00,WNW,293,1.5,2.0,84,0.00,,,0.00,WUHU216HW,2013-03-11 13:25:00,
2013-03-11 09:30:00,49.6,45.2,0.00,West,270,0.0,6.0,85,0.00,,,0.00,WUHU216HW,2013-03-11 13:30:00,
2013-03-11 09:35:00,49.6,45.2,0.00,WNW,293,4.9,6.0,85,0.00,,,0.00,WUHU216HW,2013-03-11 13:35:00,
2013-03-11 09:40:00,49.6,45.2,0.00,WNW,293,8.0,8.0,85,0.00,,,0.00,WUHU216HW,2013-03-11 13:40:00,
2013-03-11 09:45:00,49.6,45.5,0.00,West,270,8.0,8.0,86,0.00,,,0.00,WUHU216HW,2013-03-11 13:45:00,
2013-03-11 09:50:00,49.8,45.4,0.00,West,270,2.2,14.7,85,0.00,,,0.00,WUHU216HW,2013-03-11 13:50:00,
2013-03-11 09:55:00,49.8,45.4,0.00,WNW,293,0.0,14.7,85,0.00,,,0.00,WUHU216HW,2013-03-11 13:55:00,
2013-03-11 10:00:00,50.0,45.5,0.00,West,270,0.6,5.5,85,0.00,,,0.00,WUHU216HW,2013-03-11 14:00:00,
2013-03-11 10:05:00,50.1,45.7,0.00,WNW,293,0.0,6.7,85,0.00,,,0.00,WUHU216HW,2013-03-11 14:05:00,
2013-03-11 10:10:00,50.3,45.6,0.00,West,270,0.0,6.7,84,0.00,,,0.00,WUHU216HW,2013-03-11 14:10:00,
2013-03-11 10:15:00,50.5,45.8,0.00,West,270,5.3,8.2,84,0.00,,,0.00,WUHU216HW,2013-03-11 14:15:00,
2013-03-11 10:20:00,50.7,46.0,0.00,West,270,0.0,8.2,84,0.00,,,0.00,WUHU216HW,2013-03-11 14:20:00,
2013-03-11 10:25:00,50.9,45.8,0.00,West,270,2.4,2.4,83,0.00,,,0.00,WUHU216HW,2013-03-11 14:25:00,
2013-03-11 10:30:00,51.2,46.2,0.00,WNW,293,10.9,10.9,83,0.00,,,0.00,WUHU216HW,2013-03-11 14:30:00,
2013-03-11 10:35:00,51.4,46.4,0.00,West,270,3.8,10.9,83,0.00,,,0.00,WUHU216HW,2013-03-11 14:35:00,
2013-03-11 10:40:00,51.4,46.2,0.00,WNW,293,5.8,6.9,82,0.00,,,0.00,WUHU216HW,2013-03-11 14:40:00,
2013-03-11 10:45:00,51.6,46.2,0.00,West,270,10.2,10.2,82,0.00,,,0.00,WUHU216HW,2013-03-11 14:45:00,
2013-03-11 10:50:00,51.6,46.2,0.00,West,270,3.1,10.2,82,0.00,,,0.00,WUHU216HW,2013-03-11 14:50:00,
2013-03-11 10:55:00,51.8,46.4,0.00,West,270,4.2,9.1,82,0.00,,,0.00,WUHU216HW,2013-03-11 14:55:00,
2013-03-11 11:00:00,51.9,46.6,0.00,West,270,0.0,9.1,82,0.00,,,0.00,WUHU216HW,2013-03-11 15:00:00,
2013-03-11 11:05:00,51.9,46.6,0.00,West,270,4.4,9.8,82,0.00,,,0.00,WUHU216HW,2013-03-11 15:05:00,
2013-03-11 11:10:00,51.9,46.9,0.00,WSW,248,1.3,9.8,83,0.00,,,0.00,WUHU216HW,2013-03-11 15:10:00,
2013-03-11 11:15:00,52.3,47.3,0.00,WSW,248,3.1,6.9,83,0.00,,,0.00,WUHU216HW,2013-03-11 15:15:00,
2013-03-11 11:20:00,52.3,47.3,0.00,WSW,248,0.0,8.9,83,0.00,,,0.00,WUHU216HW,2013-03-11 15:20:00,
2013-03-11 11:25:00,52.1,46.8,0.00,West,270,13.1,13.1,82,0.00,,,0.00,WUHU216HW,2013-03-11 15:25:00,
2013-03-11 11:30:00,51.9,46.6,0.00,South,180,0.0,13.1,82,0.00,,,0.00,WUHU216HW,2013-03-11 15:30:00,
2013-03-11 11:35:00,51.9,46.6,0.00,NW,315,7.3,9.8,82,0.00,,,0.00,WUHU216HW,2013-03-11 15:35:00,
2013-03-11 11:40:00,51.8,46.4,0.00,West,270,5.8,9.8,82,0.00,,,0.00,WUHU216HW,2013-03-11 15:40:00,
2013-03-11 11:45:00,51.6,46.2,0.00,West,270,0.0,6.9,82,0.00,,,0.00,WUHU216HW,2013-03-11 15:45:00,
2013-03-11 11:50:00,51.6,46.2,0.00,West,270,0.0,9.3,82,0.00,,,0.00,WUHU216HW,2013-03-11 15:50:00,
2013-03-11 11:55:00,51.9,46.6,0.00,West,270,0.0,9.3,82,0.00,,,0.00,WUHU216HW,2013-03-11 15:55:00,
2013-03-11 12:00:00,51.9,46.6,0.00,West,270,2.6,7.1,82,0.00,,,0.00,WUHU216HW,2013-03-11 16:00:00,
2013-03-11 12:05:00,51.9,46.9,0.00,West,270,4.0,5.1,83,0.00,,,0.00,WUHU216HW,2013-03-11 16:05:00,
2013-03-11 12:10:00,51.9,46.9,0.00,West,270,4.6,6.9,83,0.00,,,0.00,WUHU216HW,2013-03-11 16:10:00,
2013-03-11 12:15:00,51.8,46.7,0.00,West,270,4.0,6.9,83,0.00,,,0.00,WUHU216HW,2013-03-11 16:15:00,
2013-03-11 12:20:00,51.6,46.5,0.00,West,270,4.2,6.2,83,0.00,,,0.00,WUHU216HW,2013-03-11 16:20:00,
2013-03-11 12:25:00,51.6,46.5,0.00,West,270,0.0,8.0,83,0.00,,,0.00,WUHU216HW,2013-03-11 16:25:00,
2013-03-11 12:30:00,51.4,46.4,0.00,West,270,0.0,8.0,83,0.00,,,0.00,WUHU216HW,2013-03-11 16:30:00,
2013-03-11 12:35:00,51.4,46.4,0.00,West,270,3.8,6.9,83,0.00,,,0.00,WUHU216HW,2013-03-11 16:35:00,
2013-03-11 12:40:00,51.4,46.7,0.00,WSW,248,5.5,8.2,84,0.00,,,0.00,WUHU216HW,2013-03-11 16:40:00,
2013-03-11 12:45:00,51.4,46.7,0.00,WNW,293,4.6,8.2,84,0.00,,,0.00,WUHU216HW,2013-03-11 16:45:00,
2013-03-11 12:50:00,51.2,46.5,0.00,West,270,3.1,5.3,84,0.00,,,0.00,WUHU216HW,2013-03-11 16:50:00,
2013-03-11 12:55:00,51.0,46.6,0.00,West,270,4.4,6.0,84,0.00,,,0.00,WUHU216HW,2013-03-11 16:55:00,
2013-03-11 13:00:00,50.9,46.4,0.00,WSW,248,2.4,7.6,85,0.00,,,0.00,WUHU216HW,2013-03-11 17:00:00,
2013-03-11 13:05:00,50.7,46.3,0.00,WNW,293,0.0,7.6,85,0.00,,,0.00,WUHU216HW,2013-03-11 17:05:00,
2013-03-11 13:10:00,50.7,46.3,0.00,WSW,248,0.0,6.0,85,0.00,,,0.00,WUHU216HW,2013-03-11 17:10:00,
2013-03-11 13:15:00,50.7,46.3,0.00,West,270,2.4,5.3,85,0.00,,,0.00,WUHU216HW,2013-03-11 17:15:00,
2013-03-11 13:20:00,50.7,46.3,0.00,West,270,3.5,9.6,85,0.00,,,0.00,WUHU216HW,2013-03-11 17:20:00,
2013-03-11 13:25:00,50.5,46.4,0.00,West,270,0.0,9.6,86,0.00,,,0.00,WUHU216HW,2013-03-11 17:25:00,
2013-03-11 13:30:00,50.5,46.4,0.00,WSW,248,0.0,7.6,86,0.00,,,0.00,WUHU216HW,2013-03-11 17:30:00,
2013-03-11 13:35:00,50.3,46.2,0.00,West,270,4.0,5.3,86,0.00,,,0.00,WUHU216HW,2013-03-11 17:35:00,
2013-03-11 13:40:00,50.5,46.4,0.00,West,270,1.5,5.3,86,0.00,,,0.00,WUHU216HW,2013-03-11 17:40:00,
2013-03-11 13:45:00,50.5,46.4,0.00,West,270,4.9,6.0,86,0.00,,,0.00,WUHU216HW,2013-03-11 17:45:00,
2013-03-11 13:50:00,50.5,46.4,0.00,West,270,5.3,6.0,86,0.00,,,0.00,WUHU216HW,2013-03-11 17:50:00,
2013-03-11 13:55:00,50.5,46.4,0.00,North,0,0.0,5.3,86,0.00,,,0.00,WUHU216HW,2013-03-11 17:55:00,
2013-03-11 14:00:00,50.5,46.4,0.00,West,270,0.0,4.0,86,0.00,,,0.00,WUHU216HW,2013-03-11 18:00:00,
2013-03-11 14:05:00,50.7,46.6,0.00,SE,135,0.0,0.0,86,0.00,,,0.00,WUHU216HW,2013-03-11 18:05:00,
2013-03-11 14:10:00,50.7,46.6,0.00,West,270,0.0,2.6,86,0.00,,,0.00,WUHU216HW,2013-03-11 18:10:00,
2013-03-11 14:15:00,50.7,46.6,0.00,WNW,293,0.0,2.9,86,0.00,,,0.00,WUHU216HW,2013-03-11 18:15:00,
2013-03-11 14:20:00,50.7,46.6,0.00,West,270,6.4,6.4,86,0.00,,,0.00,WUHU216HW,2013-03-11 18:20:00,
2013-03-11 14:25:00,50.7,46.6,0.00,WNW,293,0.0,6.4,86,0.00,,,0.00,WUHU216HW,2013-03-11 18:25:00,
2013-03-11 14:30:00,50.9,46.4,0.00,WNW,293,0.0,4.0,85,0.00,,,0.00,WUHU216HW,2013-03-11 18:30:00,
2013-03-11 14:35:00,50.9,46.4,0.00,WSW,248,0.0,3.1,85,0.00,,,0.00,WUHU216HW,2013-03-11 18:35:00,
2013-03-11 14:40:00,50.9,46.4,0.00,WSW,248,3.1,3.1,85,0.00,,,0.00,WUHU216HW,2013-03-11 18:40:00,
2013-03-11 14:45:00,51.0,46.6,0.00,WSW,248,0.0,3.3,85,0.00,,,0.00,WUHU216HW,2013-03-11 18:45:00,
2013-03-11 14:50:00,51.0,46.6,0.00,West,270,1.7,3.3,85,0.00,,,0.00,WUHU216HW,2013-03-11 18:50:00,
2013-03-11 14:55:00,51.2,46.8,0.00,WSW,248,0.0,1.7,85,0.00,,,0.00,WUHU216HW,2013-03-11 18:55:00,
2013-03-11 15:00:00,51.2,46.8,0.00,West,270,0.0,4.4,85,0.00,,,0.00,WUHU216HW,2013-03-11 19:00:00,
2013-03-11 15:05:00,51.4,47.0,0.00,SSE,158,0.0,4.4,85,0.00,,,0.00,WUHU216HW,2013-03-11 19:05:00,
2013-03-11 15:10:00,51.4,46.7,0.00,West,270,0.0,1.5,84,0.00,,,0.00,WUHU216HW,2013-03-11 19:10:00,
2013-03-11 15:15:00,51.6,46.9,0.00,West,270,0.0,2.2,84,0.00,,,0.00,WUHU216HW,2013-03-11 19:15:00,
2013-03-11 15:20:00,51.6,46.9,0.00,West,270,0.0,2.2,84,0.00,,,0.00,WUHU216HW,2013-03-11 19:20:00,
2013-03-11 15:25:00,51.8,46.9,0.00,West,270,4.4,5.8,84,0.00,,,0.00,WUHU216HW,2013-03-11 19:25:00,
2013-03-11 15:30:00,51.9,47.2,0.00,West,270,1.5,5.8,84,0.00,,,0.00,WUHU216HW,2013-03-11 19:30:00,
2013-03-11 15:35:00,52.3,47.8,0.00,West,270,0.0,2.6,84,0.00,,,0.00,WUHU216HW,2013-03-11 19:35:00,
2013-03-11 15:40:00,52.7,47.9,0.00,West,270,0.0,4.0,84,0.00,,,0.00,WUHU216HW,2013-03-11 19:40:00,
2013-03-11 15:45:00,52.8,47.8,0.00,WSW,248,0.0,4.2,83,0.00,,,0.00,WUHU216HW,2013-03-11 19:45:00,
2013-03-11 15:50:00,53.2,48.2,0.00,WNW,293,0.0,4.2,83,0.00,,,0.00,WUHU216HW,2013-03-11 19:50:00,
2013-03-11 15:55:00,53.2,48.2,0.00,East,90,0.0,2.0,83,0.00,,,0.00,WUHU216HW,2013-03-11 19:55:00,
2013-03-11 16:00:00,53.4,48.3,0.00,ESE,113,2.0,2.0,83,0.00,,,0.00,WUHU216HW,2013-03-11 20:00:00,
2013-03-11 16:05:00,53.4,48.3,0.00,South,180,0.0,2.2,83,0.00,,,0.00,WUHU216HW,2013-03-11 20:05:00,
2013-03-11 16:10:00,53.7,48.7,0.00,WSW,248,0.0,2.2,83,0.00,,,0.00,WUHU216HW,2013-03-11 20:10:00,
2013-03-11 16:15:00,53.7,48.4,0.00,WSW,248,0.0,0.0,82,0.00,,,0.00,WUHU216HW,2013-03-11 20:15:00,
2013-03-11 16:20:00,53.7,48.4,0.00,SE,135,0.0,0.0,82,0.00,,,0.00,WUHU216HW,2013-03-11 20:20:00,
2013-03-11 16:25:00,53.9,48.5,0.00,WSW,248,1.7,1.7,82,0.00,,,0.00,WUHU216HW,2013-03-11 20:25:00,
2013-03-11 16:30:00,54.3,48.9,0.00,WSW,248,0.0,1.7,82,0.00,,,0.00,WUHU216HW,2013-03-11 20:30:00,
2013-03-11 16:35:00,54.5,49.1,0.00,WSW,248,5.3,5.3,82,0.00,,,0.00,WUHU216HW,2013-03-11 20:35:00,
2013-03-11 16:40:00,54.6,48.9,0.00,WSW,248,4.4,5.3,81,0.00,,,0.00,WUHU216HW,2013-03-11 20:40:00,
2013-03-11 16:45:00,55.0,49.2,0.00,West,270,1.1,4.6,81,0.00,,,0.00,WUHU216HW,2013-03-11 20:45:00,
2013-03-11 16:50:00,55.2,49.1,0.00,West,270,2.0,7.6,80,0.00,,,0.00,WUHU216HW,2013-03-11 20:50:00,
2013-03-11 16:55:00,55.5,49.1,0.00,WSW,248,0.0,7.6,79,0.00,,,0.00,WUHU216HW,2013-03-11 20:55:00,
2013-03-11 17:00:00,55.5,49.1,0.00,West,270,1.1,4.4,79,0.00,,,0.00,WUHU216HW,2013-03-11 21:00:00,
2013-03-11 17:05:00,55.5,49.2,0.00,WSW,248,2.6,4.0,79,0.00,,,0.00,WUHU216HW,2013-03-11 21:05:00,
2013-03-11 17:10:00,55.7,48.9,0.00,West,270,3.8,7.1,78,0.00,,,0.00,WUHU216HW,2013-03-11 21:10:00,
2013-03-11 17:15:00,55.7,48.9,0.00,West,270,0.0,7.1,78,0.00,,,0.00,WUHU216HW,2013-03-11 21:15:00,
2013-03-11 17:20:00,55.5,49.1,0.00,WSW,248,0.0,3.3,79,0.00,,,0.00,WUHU216HW,2013-03-11 21:20:00,
2013-03-11 17:25:00,55.2,48.7,0.00,WSW,248,0.0,3.3,79,0.00,,,0.00,WUHU216HW,2013-03-11 21:25:00,
2013-03-11 17:30:00,55.2,49.1,0.00,WSW,248,0.0,0.0,80,0.00,,,0.00,WUHU216HW,2013-03-11 21:30:00,
2013-03-11 17:35:00,55.2,49.1,0.00,West,270,2.0,8.2,80,0.00,,,0.00,WUHU216HW,2013-03-11 21:35:00,
2013-03-11 17:40:00,55.2,49.1,0.00,West,270,0.0,8.2,80,0.00,,,0.00,WUHU216HW,2013-03-11 21:40:00,
2013-03-11 17:45:00,55.2,49.1,0.00,WNW,293,0.0,5.8,80,0.00,,,0.00,WUHU216HW,2013-03-11 21:45:00,
2013-03-11 17:50:00,55.0,48.9,0.00,WNW,293,0.0,5.8,80,0.00,,,0.00,WUHU216HW,2013-03-11 21:50:00,
2013-03-11 17:55:00,54.8,48.7,0.00,West,270,0.0,1.5,80,0.00,,,0.00,WUHU216HW,2013-03-11 21:55:00,
2013-03-11 18:00:00,54.5,48.7,0.00,West,270,0.0,0.0,81,0.02,,,0.00,WUHU216HW,2013-03-11 22:00:00,
2013-03-11 18:05:00,54.3,48.6,0.00,West,270,0.0,2.6,81,0.02,,,0.02,WUHU216HW,2013-03-11 22:05:00,
2013-03-11 18:10:00,54.1,48.4,0.00,West,270,0.0,2.6,81,0.02,,,0.02,WUHU216HW,2013-03-11 22:10:00,
2013-03-11 18:15:00,53.9,48.5,0.00,West,270,0.0,0.0,82,0.02,,,0.02,WUHU216HW,2013-03-11 22:15:00,
2013-03-11 18:20:00,53.7,48.4,0.00,West,270,0.0,0.0,82,0.02,,,0.02,WUHU216HW,2013-03-11 22:20:00,
2013-03-11 18:25:00,53.6,48.5,0.00,West,270,0.0,0.0,83,0.02,,,0.02,WUHU216HW,2013-03-11 22:25:00,
2013-03-11 18:30:00,53.4,48.3,0.00,West,270,0.0,4.0,83,0.02,,,0.02,WUHU216HW,2013-03-11 22:30:00,
2013-03-11 18:35:00,53.4,48.7,0.00,West,270,0.0,4.0,84,0.02,,,0.02,WUHU216HW,2013-03-11 22:35:00,
2013-03-11 18:40:00,53.4,48.7,0.00,WNW,293,2.0,2.0,84,0.02,,,0.02,WUHU216HW,2013-03-11 22:40:00,
2013-03-11 18:45:00,53.2,48.5,0.00,WNW,293,0.0,2.0,84,0.02,,,0.02,WUHU216HW,2013-03-11 22:45:00,
2013-03-11 18:50:00,53.2,48.5,0.00,West,270,0.0,0.0,84,0.02,,,0.02,WUHU216HW,2013-03-11 22:50:00,
2013-03-11 18:55:00,53.2,48.5,0.00,West,270,0.0,0.0,84,0.02,,,0.02,WUHU216HW,2013-03-11 22:55:00,
2013-03-11 19:00:00,53.0,48.3,0.00,West,270,0.0,0.0,84,0.00,,,0.02,WUHU216HW,2013-03-11 23:00:00,
2013-03-11 19:05:00,52.8,48.1,0.00,West,270,0.0,0.0,84,0.00,,,0.02,WUHU216HW,2013-03-11 23:05:00,
2013-03-11 19:10:00,52.8,48.1,0.00,West,270,0.0,0.0,84,0.00,,,0.02,WUHU216HW,2013-03-11 23:10:00,
2013-03-11 19:15:00,52.7,48.2,0.00,West,270,0.0,0.0,85,0.00,,,0.02,WUHU216HW,2013-03-11 23:15:00,
2013-03-11 19:20:00,52.7,48.2,0.00,West,270,0.0,0.0,85,0.00,,,0.02,WUHU216HW,2013-03-11 23:20:00,
2013-03-11 19:25:00,52.5,48.1,0.00,West,270,0.0,0.0,85,0.00,,,0.02,WUHU216HW,2013-03-11 23:25:00,
2013-03-11 19:30:00,52.5,48.1,0.00,West,270,0.0,0.0,85,0.00,,,0.02,WUHU216HW,2013-03-11 23:30:00,
2013-03-11 19:35:00,52.3,47.9,0.00,West,270,0.0,0.0,85,0.00,,,0.02,WUHU216HW,2013-03-11 23:35:00,
2013-03-11 19:40:00,52.3,47.9,0.00,West,270,0.0,0.0,85,0.00,,,0.02,WUHU216HW,2013-03-11 23:40:00,
2013-03-11 19:45:00,52.3,47.9,0.00,WNW,293,0.0,0.0,85,0.00,,,0.02,WUHU216HW,2013-03-11 23:45:00,
2013-03-11 19:50:00,52.3,48.2,0.00,WNW,293,0.0,0.0,86,0.00,,,0.02,WUHU216HW,2013-03-11 23:50:00,
2013-03-11 19:55:00,52.3,48.2,0.00,WNW,293,0.0,0.0,86,0.00,,,0.02,WUHU216HW,2013-03-11 23:55:00,
2013-03-11 20:00:00,52.3,48.2,0.00,WNW,293,0.0,0.8,86,0.00,,,0.02,WUHU216HW,2013-03-12 00:00:00,
2013-03-11 20:05:00,52.3,48.2,0.00,WNW,293,0.0,0.8,86,0.00,,,0.02,WUHU216HW,2013-03-12 00:05:00,
2013-03-11 20:10:00,52.3,48.2,0.00,WNW,293,0.0,0.0,86,0.00,,,0.02,WUHU216HW,2013-03-12 00:10:00,
2013-03-11 20:15:00,52.3,48.2,0.00,West,270,1.5,2.9,86,0.00,,,0.02,WUHU216HW,2013-03-12 00:15:00,
2013-03-11 20:20:00,52.3,48.5,0.00,West,270,0.0,3.5,87,0.00,,,0.02,WUHU216HW,2013-03-12 00:20:00,
2013-03-11 20:25:00,52.3,48.8,0.00,West,270,3.8,3.8,88,0.00,,,0.02,WUHU216HW,2013-03-12 00:25:00,
2013-03-11 20:30:00,52.3,48.8,0.00,West,270,0.0,3.8,88,0.00,,,0.02,WUHU216HW,2013-03-12 00:30:00,
2013-03-11 20:35:00,52.3,49.1,0.00,West,270,1.1,2.9,89,0.00,,,0.02,WUHU216HW,2013-03-12 00:35:00,
2013-03-11 20:40:00,52.3,49.1,0.00,West,270,0.0,2.9,89,0.00,,,0.02,WUHU216HW,2013-03-12 00:40:00,
2013-03-11 20:45:00,52.3,49.1,0.00,North,0,0.0,1.5,89,0.00,,,0.02,WUHU216HW,2013-03-12 00:45:00,
2013-03-11 20:50:00,52.3,49.1,0.00,West,270,0.0,2.4,89,0.00,,,0.02,WUHU216HW,2013-03-12 00:50:00,
2013-03-11 20:55:00,52.3,49.1,0.00,West,270,0.0,2.9,89,0.00,,,0.02,WUHU216HW,2013-03-12 00:55:00,
2013-03-11 21:00:00,52.3,49.1,0.00,West,270,0.0,2.9,89,0.00,,,0.02,WUHU216HW,2013-03-12 01:00:00,
2013-03-11 21:05:00,52.3,49.1,0.00,WNW,293,0.0,0.0,89,0.00,,,0.02,WUHU216HW,2013-03-12 01:05:00,
2013-03-11 21:10:00,52.3,49.1,0.00,West,270,0.0,0.0,89,0.00,,,0.02,WUHU216HW,2013-03-12 01:10:00,
2013-03-11 21:15:00,52.1,48.9,0.00,West,270,0.0,0.0,89,0.00,,,0.02,WUHU216HW,2013-03-12 01:15:00,
2013-03-11 21:20:00,52.3,49.1,0.00,West,270,0.0,0.0,89,0.00,,,0.02,WUHU216HW,2013-03-12 01:20:00,
2013-03-11 21:25:00,52.1,48.9,0.00,West,270,0.0,0.0,89,0.00,,,0.02,WUHU216HW,2013-03-12 01:25:00,
2013-03-11 21:30:00,52.1,48.9,0.00,West,270,0.0,0.0,89,0.00,,,0.02,WUHU216HW,2013-03-12 01:30:00,
2013-03-11 21:35:00,52.1,48.9,0.00,West,270,0.0,0.0,89,0.00,,,0.02,WUHU216HW,2013-03-12 01:35:00,
2013-03-11 21:40:00,52.1,48.9,0.00,West,270,0.0,0.0,89,0.00,,,0.02,WUHU216HW,2013-03-12 01:40:00,
2013-03-11 21:45:00,52.1,48.9,0.00,SE,135,0.0,0.0,89,0.00,,,0.02,WUHU216HW,2013-03-12 01:45:00,
2013-03-11 21:50:00,51.9,48.7,0.00,WNW,293,0.0,2.2,89,0.00,,,0.02,WUHU216HW,2013-03-12 01:50:00,
2013-03-11 21:55:00,51.9,49.1,0.00,WNW,293,1.5,2.2,90,0.00,,,0.02,WUHU216HW,2013-03-12 01:55:00,
2013-03-11 22:00:00,52.1,49.2,0.00,WSW,248,0.0,3.1,90,0.00,,,0.02,WUHU216HW,2013-03-12 02:00:00,
2013-03-11 22:05:00,51.9,49.1,0.00,North,0,0.0,3.1,90,0.00,,,0.02,WUHU216HW,2013-03-12 02:05:00,
2013-03-11 22:10:00,51.9,49.1,0.00,West,270,0.0,0.6,90,0.00,,,0.02,WUHU216HW,2013-03-12 02:10:00,
2013-03-11 22:15:00,51.9,49.1,0.00,North,0,0.0,0.6,90,0.00,,,0.02,WUHU216HW,2013-03-12 02:15:00,
2013-03-11 22:20:00,51.9,49.1,0.00,West,270,0.0,4.4,90,0.00,,,0.02,WUHU216HW,2013-03-12 02:20:00,
2013-03-11 22:25:00,51.9,49.1,0.00,WNW,293,0.0,4.4,90,0.00,,,0.02,WUHU216HW,2013-03-12 02:25:00,
2013-03-11 22:30:00,51.9,49.1,0.00,WNW,293,0.0,2.4,90,0.00,,,0.02,WUHU216HW,2013-03-12 02:30:00,
2013-03-11 22:35:00,51.9,49.1,0.00,West,270,1.5,4.0,90,0.00,,,0.02,WUHU216HW,2013-03-12 02:35:00,
2013-03-11 22:40:00,51.9,49.1,0.00,West,270,0.0,4.0,90,0.00,,,0.02,WUHU216HW,2013-03-12 02:40:00,
2013-03-11 22:45:00,51.9,49.1,0.00,WNW,293,4.0,4.0,90,0.00,,,0.02,WUHU216HW,2013-03-12 02:45:00,
2013-03-11 22:50:00,51.9,49.1,0.00,WNW,293,3.1,4.0,90,0.00,,,0.02,WUHU216HW,2013-03-12 02:50:00,
2013-03-11 22:55:00,52.1,49.2,0.00,West,270,1.3,3.5,90,0.00,,,0.02,WUHU216HW,2013-03-12 02:55:00,
2013-03-11 23:00:00,52.1,49.2,0.00,West,270,0.0,3.5,90,0.00,,,0.02,WUHU216HW,2013-03-12 03:00:00,
2013-03-11 23:05:00,52.1,49.2,0.00,WNW,293,5.3,7.3,90,0.00,,,0.02,WUHU216HW,2013-03-12 03:05:00,
2013-03-11 23:10:00,52.1,49.5,0.00,WNW,293,0.0,8.9,91,0.00,,,0.02,WUHU216HW,2013-03-12 03:10:00,
2013-03-11 23:15:00,52.1,49.5,0.00,West,270,1.1,8.9,91,0.00,,,0.02,WUHU216HW,2013-03-12 03:15:00,
2013-03-11 23:20:00,52.1,49.5,0.00,West,270,0.0,2.4,91,0.00,,,0.02,WUHU216HW,2013-03-12 03:20:00,
2013-03-11 23:25:00,52.1,49.5,0.00,WNW,293,0.0,1.3,91,0.00,,,0.02,WUHU216HW,2013-03-12 03:25:00,
2013-03-11 23:30:00,52.1,49.5,0.00,West,270,0.0,2.2,91,0.00,,,0.02,WUHU216HW,2013-03-12 03:30:00,
2013-03-11 23:35:00,52.1,49.5,0.00,WNW,293,0.0,2.2,91,0.00,,,0.02,WUHU216HW,2013-03-12 03:35:00,
2013-03-11 23:40:00,52.1,49.5,0.00,WNW,293,0.0,1.7,91,0.00,,,0.02,WUHU216HW,2013-03-12 03:40:00,
2013-03-11 23:45:00,52.1,49.5,0.00,WNW,293,0.0,1.7,91,0.00,,,0.02,WUHU216HW,2013-03-12 03:45:00,
2013-03-11 23:50:00,52.1,49.5,0.00,WNW,293,0.0,0.8,91,0.00,,,0.02,WUHU216HW,2013-03-12 03:50:00,
2013-03-11 23:55:00,52.1,49.5,0.00,WNW,293,0.0,0.0,91,0.00,,,0.02,WUHU216HW,2013-03-12 03:55:00,